When you browse on this site, cookies collect data to enhance your experience and personalize the content and advertising you see.
Visit our Privacy Policy to learn more. By continuing to use the site, you agree to this use of cookies and data.
  • In Austria
  • List of Countries
  • For 7 days
  • Water Temperature
  • Weather Map
  • News
  • Weather Widgets
  • user-avatar
    Login

    Hourly Weather Zagorbashe

    Today, 18 August, Sunday

    Time Temperature Precipitation Wind Pressure Humidity
    00:00 +14°C° 0 mm 1 mps 749 mmHg 89%
    01:00 +13°C° 0 mm 1 mps 749 mmHg 89%
    02:00 +13°C° 0 mm 1 mps 749 mmHg 87%
    03:00 +13°C° 0 mm 1 mps 749 mmHg 88%
    04:00 +13°C° 0 mm 2 mps 749 mmHg 89%
    05:00 +13°C° 0 mm 2 mps 749 mmHg 90%
    06:00 +14°C° 0 mm 2 mps 749 mmHg 84%
    07:00 +16°C° 0 mm 2 mps 749 mmHg 79%
    08:00 +18°C° 0 mm 2 mps 749 mmHg 72%
    09:00 +20°C° 0 mm 2 mps 749 mmHg 67%
    10:00 +21°C° 0 mm 2 mps 749 mmHg 61%
    11:00 +24°C° 0 mm 2 mps 749 mmHg 56%
    12:00 +25°C° 0 mm 2 mps 749 mmHg 54%
    13:00 +25°C° 0 mm 2 mps 749 mmHg 52%
    14:00 +26°C° 0 mm 3 mps 749 mmHg 51%
    15:00 +26°C° 0 mm 2 mps 749 mmHg 54%
    16:00 +26°C° 0 mm 2 mps 749 mmHg 56%
    17:00 +25°C° 0 mm 2 mps 749 mmHg 59%
    18:00 +23°C° 0 mm 1 mps 749 mmHg 65%
    19:00 +21°C° 0 mm 1 mps 749 mmHg 72%
    20:00 +19°C° 0 mm 1 mps 750 mmHg 78%
    21:00 +19°C° 0 mm 1 mps 750 mmHg 79%
    22:00 +19°C° 0 mm 1 mps 750 mmHg 80%
    23:00 +17°C° 0 mm 2 mps 750 mmHg 81%

    Tomorrow, 19 August, Monday

    Time Temperature Precipitation Wind Pressure Humidity
    00:00 +17°C° 0 mm 2 mps 750 mmHg 82%
    01:00 +16°C° 0 mm 2 mps 750 mmHg 83%
    02:00 +16°C° 0 mm 2 mps 750 mmHg 83%
    03:00 +16°C° 0 mm 2 mps 750 mmHg 84%
    04:00 +15°C° 0 mm 2 mps 750 mmHg 84%
    05:00 +15°C° 0 mm 2 mps 750 mmHg 84%
    06:00 +17°C° 0 mm 2 mps 750 mmHg 81%
    07:00 +18°C° 0 mm 3 mps 750 mmHg 79%
    08:00 +20°C° 0 mm 3 mps 751 mmHg 76%
    09:00 +22°C° 0 mm 3 mps 751 mmHg 71%
    10:00 +25°C° 0 mm 3 mps 751 mmHg 66%
    11:00 +27°C° 0 mm 3 mps 751 mmHg 61%
    12:00 +28°C° 0 mm 3 mps 751 mmHg 58%
    13:00 +29°C° 0 mm 3 mps 751 mmHg 56%
    14:00 +30°C° 0 mm 3 mps 751 mmHg 53%
    15:00 +30°C° 0.2 mm 3 mps 751 mmHg 57%
    16:00 +29°C° 0.2 mm 2 mps 751 mmHg 60%
    17:00 +29°C° 0.2 mm 2 mps 751 mmHg 63%
    18:00 +27°C° 0.2 mm 2 mps 751 mmHg 69%
    19:00 +25°C° 0.2 mm 2 mps 751 mmHg 75%
    20:00 +24°C° 0.2 mm 2 mps 752 mmHg 82%
    21:00 +23°C° 0 mm 2 mps 752 mmHg 83%
    22:00 +21°C° 0 mm 2 mps 752 mmHg 85%
    23:00 +21°C° 0 mm 3 mps 752 mmHg 87%

    Day after tomorrow, 20 August, Tuesday

    Time Temperature Precipitation Wind Pressure Humidity
    00:00 +20°C° 0.5 mm 2 mps 752 mmHg 88%
    01:00 +20°C° 0.5 mm 2 mps 752 mmHg 89%
    02:00 +19°C° 0.5 mm 2 mps 753 mmHg 89%
    03:00 +19°C° 0.2 mm 2 mps 753 mmHg 90%
    04:00 +19°C° 0.2 mm 2 mps 753 mmHg 91%
    05:00 +18°C° 0.2 mm 2 mps 753 mmHg 92%
    06:00 +20°C° 0 mm 2 mps 753 mmHg 88%
    07:00 +21°C° 0 mm 2 mps 754 mmHg 85%
    08:00 +23°C° 0 mm 2 mps 754 mmHg 81%
    09:00 +25°C° 0 mm 2 mps 754 mmHg 76%
    10:00 +26°C° 0 mm 2 mps 754 mmHg 70%
    11:00 +28°C° 0 mm 2 mps 754 mmHg 64%
    12:00 +28°C° 0.1 mm 2 mps 754 mmHg 63%
    13:00 +29°C° 0.1 mm 2 mps 754 mmHg 62%
    14:00 +29°C° 0.1 mm 2 mps 754 mmHg 61%
    15:00 +29°C° 0.7 mm 2 mps 754 mmHg 66%
    16:00 +28°C° 0.7 mm 2 mps 754 mmHg 71%
    17:00 +27°C° 0.7 mm 2 mps 754 mmHg 77%
    18:00 +26°C° 0.1 mm 2 mps 754 mmHg 82%
    19:00 +24°C° 0.1 mm 2 mps 755 mmHg 87%
    20:00 +21°C° 0.1 mm 2 mps 755 mmHg 92%
    21:00 +21°C° 0 mm 2 mps 755 mmHg 93%
    22:00 +22°C° 0 mm 1 mps 755 mmHg 94%
    23:00 +21°C° 0 mm 1 mps 755 mmHg 94%

    21 August, Wednesday

    Time Temperature Precipitation Wind Pressure Humidity
    00:00 +21°C° 0 mm 1 mps 755 mmHg 94%
    01:00 +21°C° 0 mm 1 mps 755 mmHg 95%
    02:00 +20°C° 0 mm 1 mps 755 mmHg 95%
    03:00 +20°C° 0 mm 1 mps 755 mmHg 95%
    04:00 +20°C° 0 mm 1 mps 755 mmHg 94%
    05:00 +20°C° 0 mm 1 mps 755 mmHg 94%
    06:00 +21°C° 0 mm 1 mps 755 mmHg 90%
    07:00 +21°C° 0 mm 2 mps 755 mmHg 86%
    08:00 +23°C° 0 mm 2 mps 755 mmHg 81%
    09:00 +25°C° 0 mm 2 mps 754 mmHg 72%
    10:00 +27°C° 0 mm 2 mps 754 mmHg 64%
    11:00 +29°C° 0 mm 3 mps 754 mmHg 55%
    12:00 +30°C° 0 mm 3 mps 754 mmHg 52%
    13:00 +31°C° 0 mm 3 mps 754 mmHg 49%
    14:00 +31°C° 0 mm 3 mps 753 mmHg 46%
    15:00 +31°C° 0 mm 3 mps 753 mmHg 49%
    16:00 +31°C° 0 mm 2 mps 753 mmHg 53%
    17:00 +30°C° 0 mm 2 mps 752 mmHg 56%
    18:00 +28°C° 0 mm 2 mps 752 mmHg 60%
    19:00 +26°C° 0 mm 2 mps 752 mmHg 65%
    20:00 +24°C° 0 mm 2 mps 753 mmHg 69%
    21:00 +23°C° 0 mm 2 mps 753 mmHg 72%
    22:00 +23°C° 0 mm 2 mps 753 mmHg 76%
    23:00 +21°C° 0 mm 2 mps 753 mmHg 79%

    22 August, Thursday

    Time Temperature Precipitation Wind Pressure Humidity
    00:00 +20°C° 0.1 mm 2 mps 753 mmHg 84%
    01:00 +20°C° 0.1 mm 3 mps 753 mmHg 89%
    02:00 +19°C° 0.1 mm 3 mps 754 mmHg 94%
    03:00 +19°C° 0.1 mm 3 mps 754 mmHg 93%
    04:00 +18°C° 0.1 mm 4 mps 753 mmHg 92%
    05:00 +17°C° 0.1 mm 4 mps 753 mmHg 92%
    06:00 +18°C° 0 mm 4 mps 754 mmHg 90%
    07:00 +18°C° 0 mm 4 mps 754 mmHg 88%
    08:00 +19°C° 0 mm 4 mps 755 mmHg 86%
    09:00 +19°C° 0.1 mm 4 mps 755 mmHg 85%
    10:00 +19°C° 0.1 mm 4 mps 755 mmHg 84%
    11:00 +19°C° 0.1 mm 4 mps 755 mmHg 83%
    12:00 +19°C° 0 mm 4 mps 755 mmHg 81%
    13:00 +20°C° 0 mm 4 mps 755 mmHg 79%
    14:00 +20°C° 0 mm 3 mps 755 mmHg 77%
    15:00 +20°C° 0 mm 3 mps 755 mmHg 76%
    16:00 +20°C° 0 mm 3 mps 755 mmHg 76%
    17:00 +20°C° 0 mm 3 mps 755 mmHg 76%
    18:00 +20°C° 0 mm 3 mps 755 mmHg 78%
    19:00 +19°C° 0 mm 2 mps 755 mmHg 79%
    20:00 +18°C° 0 mm 2 mps 756 mmHg 81%
    21:00 +18°C° 0 mm 2 mps 756 mmHg 82%
    22:00 +18°C° 0 mm 2 mps 756 mmHg 83%
    23:00 +17°C° 0 mm 2 mps 756 mmHg 85%

    23 August, Friday

    Time Temperature Precipitation Wind Pressure Humidity
    00:00 +17°C° 0 mm 2 mps 756 mmHg 86%
    01:00 +17°C° 0 mm 2 mps 756 mmHg 88%
    02:00 +16°C° 0 mm 2 mps 756 mmHg 90%
    03:00 +16°C° 0 mm 2 mps 756 mmHg 90%
    04:00 +16°C° 0 mm 3 mps 756 mmHg 90%
    05:00 +14°C° 0 mm 3 mps 756 mmHg 90%
    06:00 +16°C° 0 mm 3 mps 756 mmHg 86%
    07:00 +17°C° 0 mm 3 mps 756 mmHg 82%
    08:00 +18°C° 0 mm 3 mps 756 mmHg 78%
    09:00 +19°C° 0 mm 4 mps 756 mmHg 72%
    10:00 +21°C° 0 mm 4 mps 756 mmHg 65%
    11:00 +22°C° 0 mm 4 mps 757 mmHg 59%
    12:00 +22°C° 0 mm 4 mps 757 mmHg 57%
    13:00 +23°C° 0 mm 4 mps 757 mmHg 55%
    14:00 +23°C° 0 mm 4 mps 756 mmHg 54%
    15:00 +23°C° 0 mm 4 mps 756 mmHg 55%
    16:00 +22°C° 0 mm 4 mps 756 mmHg 57%
    17:00 +22°C° 0 mm 4 mps 756 mmHg 59%
    18:00 +20°C° 0 mm 3 mps 757 mmHg 65%
    19:00 +18°C° 0 mm 3 mps 757 mmHg 72%
    20:00 +16°C° 0 mm 2 mps 757 mmHg 79%
    21:00 +15°C° 0 mm 2 mps 757 mmHg 82%
    22:00 +15°C° 0 mm 2 mps 758 mmHg 86%
    23:00 +14°C° 0 mm 2 mps 758 mmHg 90%
    Show more